sat.trackr.live / text

‹ back to catalog

STARLINK-37200

NORAD 68339 · 2026-059U

PAYLOAD ACTIVE UNKNOWN

§ Identity

Operator
Country
US
Launch date
2026-03-22
Launch site
AFETR
Launch vehicle
Mass (kg)
RCS (m²)

Purposes: comms

External: N2YO · Heavens-Above · Gunter

§ Orbital elements

Epoch: 2026-05-24T23:51:15.526944Z

Period
94.10 min
Inclination
53.1578°
Eccentricity
0.0000927
Mean motion
15.30215503 rev/d
Perigee alt
474.5 km
Apogee alt
475.8 km
Semi-major
6,853.3 km
B*
6.5495e-4
RAAN
353.4437°
Arg perigee
79.3656°
Mean anomaly
280.7450°
Rev number
986

§ Raw data

STARLINK-372001 68339U 26059U   26144.99392971  .00019098  00000+0  65495-3 0  99952 68339  53.1578 353.4437 0000927  79.3656 280.7450 15.30215503  9867

JSON: /api/v1/satellites/68339 · /tle

For live sub-satellite position, see the globe view (requires WebGL).

§ Visibility from observer

Set your observer location to see the next 7 days of passes ≥ 10°. The values pass through the URL so the page stays shareable.

No JS? Fill the form by hand. The geolocation button needs JavaScript.